iso_date,epoch_date,Year,Hour,Min,DOY,POS_DOY,Lat,Lon,BP,Ts,Ta,has_bp,has_ts,has_ta,BuoyID,Buoy_Type,Buoy_Owner,Logistics,Hemisphere
2019-10-06T00:24:02Z,1570321443,2019,0,24,279.0167,279.0167,85.0314,132.7689,-999.00,-0.66,-999.0,no,yes,no,300234065982560,GPS,TUT,MOSAiC,North
2019-10-06T00:29:57Z,1570321797,2019,0,30,279.0208,279.0208,85.03146,132.76859,-999.00,-0.63,-999.0,no,yes,no,300234065982560,GPS,TUT,MOSAiC,North
2019-10-06T01:30:00Z,1570325400,2019,1,30,279.0625,279.0625,85.0317,132.77288,-999.00,-0.61,-999.0,no,yes,no,300234065982560,GPS,TUT,MOSAiC,North
2019-10-06T02:30:02Z,1570329003,2019,2,30,279.1042,279.1042,85.03296,132.78145,-999.00,-0.61,-999.0,no,yes,no,300234065982560,GPS,TUT,MOSAiC,North
2019-10-06T03:29:57Z,1570332597,2019,3,30,279.1458,279.1458,85.05372,133.08184,-999.00,-0.61,-999.0,no,yes,no,300234065982560,GPS,TUT,MOSAiC,North
2019-10-06T04:30:00Z,1570336200,2019,4,30,279.1875,279.1875,85.03634,134.07466,-999.00,-0.61,-999.0,no,yes,no,300234065982560,GPS,TUT,MOSAiC,North
2019-10-06T05:30:02Z,1570339803,2019,5,30,279.2292,279.2292,85.019,134.63757,-999.00,-0.62,-999.0,no,yes,no,300234065982560,GPS,TUT,MOSAiC,North
2019-10-06T06:29:57Z,1570343397,2019,6,30,279.2708,279.2708,85.01479,134.65339,-999.00,-0.64,-999.0,no,yes,no,300234065982560,GPS,TUT,MOSAiC,North
2019-10-06T07:30:00Z,1570347000,2019,7,30,279.3125,279.3125,85.01382,134.65838,-999.00,-0.65,-999.0,no,yes,no,300234065982560,GPS,TUT,MOSAiC,North
2019-10-06T08:30:02Z,1570350603,2019,8,30,279.3542,279.3542,85.0126,134.66117,-999.00,-0.66,-999.0,no,yes,no,300234065982560,GPS,TUT,MOSAiC,North
2019-10-06T10:30:00Z,1570357800,2019,10,30,279.4375,279.4375,85.01078,134.66641,-999.00,-0.66,-999.0,no,yes,no,300234065982560,GPS,TUT,MOSAiC,North
2019-10-06T11:30:02Z,1570361403,2019,11,30,279.4792,279.4792,85.01016,134.6715,-999.00,-0.66,-999.0,no,yes,no,300234065982560,GPS,TUT,MOSAiC,North
2019-10-06T12:29:57Z,1570364997,2019,12,30,279.5208,279.5208,85.00961,134.67863,-999.00,-0.66,-999.0,no,yes,no,300234065982560,GPS,TUT,MOSAiC,North
2019-10-06T13:30:00Z,1570368600,2019,13,30,279.5625,279.5625,85.00938,134.68824,-999.00,-0.66,-999.0,no,yes,no,300234065982560,GPS,TUT,MOSAiC,North
2019-10-06T14:30:02Z,1570372203,2019,14,30,279.6042,279.6042,85.0093,134.70006,-999.00,-0.65,-999.0,no,yes,no,300234065982560,GPS,TUT,MOSAiC,North
2019-10-06T14:30:02Z,1570372203,2019,14,30,279.6042,279.6042,85.0093,134.70006,-999.00,-0.66,-999.0,no,yes,no,300234065982560,GPS,TUT,MOSAiC,North
2019-10-06T16:30:00Z,1570379400,2019,16,30,279.6875,279.6875,85.00912,134.7351,-999.00,-0.64,-999.0,no,yes,no,300234065982560,GPS,TUT,MOSAiC,North
2019-10-06T17:30:02Z,1570383003,2019,17,30,279.7292,279.7292,85.00877,134.75799,-999.00,-0.63,-999.0,no,yes,no,300234065982560,GPS,TUT,MOSAiC,North
2019-10-06T18:29:57Z,1570386597,2019,18,30,279.7708,279.7708,85.00819,134.78268,-999.00,-0.62,-999.0,no,yes,no,300234065982560,GPS,TUT,MOSAiC,North
2019-10-06T19:30:00Z,1570390200,2019,19,30,279.8125,279.8125,85.00719,134.81037,-999.00,-0.62,-999.0,no,yes,no,300234065982560,GPS,TUT,MOSAiC,North
2019-10-06T20:30:02Z,1570393803,2019,20,30,279.8542,279.8542,85.00572,134.84113,-999.00,-0.62,-999.0,no,yes,no,300234065982560,GPS,TUT,MOSAiC,North
2019-10-06T21:29:57Z,1570397397,2019,21,30,279.8958,279.8958,85.00413,134.86756,-999.00,-0.62,-999.0,no,yes,no,300234065982560,GPS,TUT,MOSAiC,North
2019-10-07T00:14:58Z,1570407299,2019,0,15,280.0104,280.0104,84.99968,134.92699,-999.00,-0.63,-999.0,no,yes,no,300234065982560,GPS,TUT,MOSAiC,North
2019-10-07T00:36:00Z,1570408560,2019,0,36,280.025,280.025,84.99908,134.93485,-999.00,-0.63,-999.0,no,yes,no,300234065982560,GPS,TUT,MOSAiC,North
2019-10-07T02:11:02Z,1570414262,2019,2,11,280.091,280.091,84.87196,136.80666,-999.00,0.16,-999.0,no,yes,no,300234065982560,GPS,TUT,MOSAiC,North
2019-10-07T03:29:57Z,1570418997,2019,3,30,280.1458,280.1458,85.06328,137.64136,-999.00,0.05,-999.0,no,yes,no,300234065982560,GPS,TUT,MOSAiC,North
2019-10-07T04:30:00Z,1570422600,2019,4,30,280.1875,280.1875,85.06182,137.67799,-999.00,-0.21,-999.0,no,yes,no,300234065982560,GPS,TUT,MOSAiC,North
2019-10-07T05:30:02Z,1570426203,2019,5,30,280.2292,280.2292,85.05995,137.71578,-999.00,-0.34,-999.0,no,yes,no,300234065982560,GPS,TUT,MOSAiC,North
2019-10-07T09:13:58Z,1570439638,2019,9,14,280.3847,280.3847,84.98525,135.23697,-999.00,0.42,-999.0,no,yes,no,300234065982560,GPS,TUT,MOSAiC,North
2019-10-07T09:29:57Z,1570440597,2019,9,30,280.3958,280.3958,84.98461,135.24571,-999.00,0.47,-999.0,no,yes,no,300234065982560,GPS,TUT,MOSAiC,North
2019-10-07T10:30:00Z,1570444200,2019,10,30,280.4375,280.4375,84.98223,135.28073,-999.00,0.13,-999.0,no,yes,no,300234065982560,GPS,TUT,MOSAiC,North
2019-10-07T11:30:02Z,1570447803,2019,11,30,280.4792,280.4792,84.95125,135.50406,-999.00,-0.1,-999.0,no,yes,no,300234065982560,GPS,TUT,MOSAiC,North
2019-10-07T12:29:57Z,1570451397,2019,12,30,280.5208,280.5208,84.9982,136.09312,-999.00,-0.25,-999.0,no,yes,no,300234065982560,GPS,TUT,MOSAiC,North
2019-10-07T13:30:00Z,1570455000,2019,13,30,280.5625,280.5625,85.01521,136.15661,-999.00,-0.36,-999.0,no,yes,no,300234065982560,GPS,TUT,MOSAiC,North
2019-10-07T14:30:02Z,1570458603,2019,14,30,280.6042,280.6042,85.01521,136.15661,-999.00,-0.36,-999.0,no,yes,no,300234065982560,GPS,TUT,MOSAiC,North
2019-10-07T15:29:57Z,1570462197,2019,15,30,280.6458,280.6458,85.13161,136.49061,-999.00,-0.43,-999.0,no,yes,no,300234065982560,GPS,TUT,MOSAiC,North
2019-10-07T16:30:00Z,1570465800,2019,16,30,280.6875,280.6875,85.17143,135.4725,-999.00,-0.49,-999.0,no,yes,no,300234065982560,GPS,TUT,MOSAiC,North
2019-10-07T17:30:02Z,1570469403,2019,17,30,280.7292,280.7292,85.16086,135.46755,-999.00,-0.54,-999.0,no,yes,no,300234065982560,GPS,TUT,MOSAiC,North
2019-10-07T18:29:57Z,1570472997,2019,18,30,280.7708,280.7708,85.15684,135.53389,-999.00,-0.56,-999.0,no,yes,no,300234065982560,GPS,TUT,MOSAiC,North
2019-10-07T19:30:00Z,1570476600,2019,19,30,280.8125,280.8125,85.15274,135.59969,-999.00,-0.58,-999.0,no,yes,no,300234065982560,GPS,TUT,MOSAiC,North
2019-10-07T20:30:02Z,1570480203,2019,20,30,280.8542,280.8542,85.14852,135.66557,-999.00,-0.61,-999.0,no,yes,no,300234065982560,GPS,TUT,MOSAiC,North
2019-10-07T21:29:57Z,1570483797,2019,21,30,280.8958,280.8958,85.14458,135.73151,-999.00,-0.62,-999.0,no,yes,no,300234065982560,GPS,TUT,MOSAiC,North
2019-10-07T22:30:00Z,1570487400,2019,22,30,280.9375,280.9375,85.14111,135.80234,-999.00,-0.62,-999.0,no,yes,no,300234065982560,GPS,TUT,MOSAiC,North
2019-10-08T00:23:02Z,1570494182,2019,0,23,281.016,281.016,85.11462,136.11949,-999.00,-0.53,-999.0,no,yes,no,300234065982560,GPS,TUT,MOSAiC,North
2019-10-08T01:30:00Z,1570498200,2019,1,30,281.0625,281.0625,85.11409,136.13028,-999.00,-0.49,-999.0,no,yes,no,300234065982560,GPS,TUT,MOSAiC,North
2019-10-08T02:30:02Z,1570501803,2019,2,30,281.1042,281.1042,85.10982,136.23508,-999.00,-0.47,-999.0,no,yes,no,300234065982560,GPS,TUT,MOSAiC,North
2019-10-08T03:29:57Z,1570505397,2019,3,30,281.1458,281.1458,85.10515,136.34316,-999.00,-0.43,-999.0,no,yes,no,300234065982560,GPS,TUT,MOSAiC,North
2019-10-08T04:30:00Z,1570509000,2019,4,30,281.1875,281.1875,85.1068,136.23635,-999.00,-0.39,-999.0,no,yes,no,300234065982560,GPS,TUT,MOSAiC,North
2019-10-08T05:30:02Z,1570512603,2019,5,30,281.2292,281.2292,85.10114,136.33167,-999.00,-0.37,-999.0,no,yes,no,300234065982560,GPS,TUT,MOSAiC,North
2019-10-08T06:29:57Z,1570516197,2019,6,30,281.2708,281.2708,85.09536,136.41743,-999.00,-0.35,-999.0,no,yes,no,300234065982560,GPS,TUT,MOSAiC,North
2019-10-08T07:30:00Z,1570519800,2019,7,30,281.3125,281.3125,85.08938,136.48884,-999.00,-0.33,-999.0,no,yes,no,300234065982560,GPS,TUT,MOSAiC,North
2019-10-08T08:30:02Z,1570523403,2019,8,30,281.3542,281.3542,85.08314,136.5468,-999.00,-0.31,-999.0,no,yes,no,300234065982560,GPS,TUT,MOSAiC,North
2019-10-08T09:29:57Z,1570526997,2019,9,30,281.3958,281.3958,85.07688,136.59185,-999.00,-0.28,-999.0,no,yes,no,300234065982560,GPS,TUT,MOSAiC,North
2019-10-08T10:30:00Z,1570530600,2019,10,30,281.4375,281.4375,85.07066,136.61367,-999.00,-0.23,-999.0,no,yes,no,300234065982560,GPS,TUT,MOSAiC,North
2019-10-08T11:30:02Z,1570534203,2019,11,30,281.4792,281.4792,85.06448,136.62208,-999.00,-0.23,-999.0,no,yes,no,300234065982560,GPS,TUT,MOSAiC,North
2019-10-08T12:29:57Z,1570537797,2019,12,30,281.5208,281.5208,85.05828,136.61987,-999.00,-0.25,-999.0,no,yes,no,300234065982560,GPS,TUT,MOSAiC,North
2019-10-08T13:30:00Z,1570541400,2019,13,30,281.5625,281.5625,85.0526,136.61248,-999.00,-0.31,-999.0,no,yes,no,300234065982560,GPS,TUT,MOSAiC,North
2019-10-08T23:27:01Z,1570577221,2019,23,27,281.9771,281.9771,85.11859,136.0187,-999.00,-0.56,-999.0,no,yes,no,300234065982560,GPS,TUT,MOSAiC,North
2019-10-08T23:30:02Z,1570577403,2019,23,30,281.9792,281.9792,85.09188,136.56009,-999.00,-0.54,-999.0,no,yes,no,300234065982560,GPS,TUT,MOSAiC,North
2019-10-09T00:29:57Z,1570580997,2019,0,30,282.0208,282.0208,85.09036,136.52279,-999.00,-0.55,-999.0,no,yes,no,300234065982560,GPS,TUT,MOSAiC,North
2019-10-13T14:28:01Z,1570976882,2019,14,28,286.6028,286.6028,84.86994,135.60515,-999.00,-2.01,-999.0,no,yes,no,300234065982560,GPS,TUT,MOSAiC,North
2019-10-14T06:29:57Z,1571034597,2019,6,30,287.2708,287.2708,84.72008,135.33418,-999.00,-1.49,-999.0,no,yes,no,300234065982560,GPS,TUT,MOSAiC,North
2019-10-14T06:29:57Z,1571034597,2019,6,30,287.2708,287.2708,84.81174,135.33418,-999.00,-1.46,-999.0,no,yes,no,300234065982560,GPS,TUT,MOSAiC,North
2019-10-14T08:30:02Z,1571041803,2019,8,30,287.3542,287.3542,84.80582,135.30826,-999.00,-1.52,-999.0,no,yes,no,300234065982560,GPS,TUT,MOSAiC,North
2019-10-14T09:29:57Z,1571045397,2019,9,30,287.3958,287.3958,84.80239,135.2929,-999.00,-1.48,-999.0,no,yes,no,300234065982560,GPS,TUT,MOSAiC,North
2019-10-14T09:29:57Z,1571045397,2019,9,30,287.3958,287.3958,84.80239,135.29292,-999.00,-1.51,-999.0,no,yes,no,300234065982560,GPS,TUT,MOSAiC,North
2019-10-14T11:30:02Z,1571052603,2019,11,30,287.4792,287.4792,84.79621,135.24689,-999.00,-1.43,-999.0,no,yes,no,300234065982560,GPS,TUT,MOSAiC,North
2019-10-14T11:30:02Z,1571052603,2019,11,30,287.4792,287.4792,84.79622,135.24689,-999.00,-1.01,-999.0,no,yes,no,300234065982560,GPS,TUT,MOSAiC,North
2019-10-14T13:30:00Z,1571059800,2019,13,30,287.5625,287.5625,84.79235,135.19139,-999.00,-1.57,-999.0,no,yes,no,300234065982560,GPS,TUT,MOSAiC,North
2019-10-14T13:30:00Z,1571059800,2019,13,30,287.5625,287.5625,84.79235,135.1914,-999.00,-1.49,-999.0,no,yes,no,300234065982560,GPS,TUT,MOSAiC,North
2019-10-15T06:29:57Z,1571120997,2019,6,30,288.2708,288.2708,84.79084,135.13225,-999.00,-1.98,-999.0,no,yes,no,300234065982560,GPS,TUT,MOSAiC,North
2019-10-15T07:30:00Z,1571124600,2019,7,30,288.3125,288.3125,84.79113,135.13674,-999.00,-2.04,-999.0,no,yes,no,300234065982560,GPS,TUT,MOSAiC,North
2019-10-15T08:30:02Z,1571128203,2019,8,30,288.3542,288.3542,84.79105,135.13716,-999.00,-2.08,-999.0,no,yes,no,300234065982560,GPS,TUT,MOSAiC,North
2019-10-15T09:29:57Z,1571131797,2019,9,30,288.3958,288.3958,84.79076,135.13083,-999.00,-2.07,-999.0,no,yes,no,300234065982560,GPS,TUT,MOSAiC,North
2019-10-27T14:30:02Z,1572186603,2019,14,30,300.6042,300.6042,85.53766,127.51542,-999.00,-2.07,-999.0,no,yes,no,300234065982560,GPS,TUT,MOSAiC,North
2019-10-27T15:29:57Z,1572190197,2019,15,30,300.6458,300.6458,85.54087,127.49469,-999.00,-2.08,-999.0,no,yes,no,300234065982560,GPS,TUT,MOSAiC,North
2019-10-27T16:30:00Z,1572193800,2019,16,30,300.6875,300.6875,85.54409,127.47621,-999.00,-2.08,-999.0,no,yes,no,300234065982560,GPS,TUT,MOSAiC,North
2019-10-27T17:30:02Z,1572197403,2019,17,30,300.7292,300.7292,85.54409,127.4762,-999.00,-2.07,-999.0,no,yes,no,300234065982560,GPS,TUT,MOSAiC,North
2019-10-27T18:29:57Z,1572200997,2019,18,30,300.7708,300.7708,85.55054,127.43884,-999.00,-2.07,-999.0,no,yes,no,300234065982560,GPS,TUT,MOSAiC,North
2019-10-27T19:30:00Z,1572204600,2019,19,30,300.8125,300.8125,85.55054,127.43882,-999.00,-2.06,-999.0,no,yes,no,300234065982560,GPS,TUT,MOSAiC,North
2019-10-27T20:30:02Z,1572208203,2019,20,30,300.8542,300.8542,85.55683,127.38711,-999.00,-2.06,-999.0,no,yes,no,300234065982560,GPS,TUT,MOSAiC,North
2019-10-27T21:29:57Z,1572211797,2019,21,30,300.8958,300.8958,85.55683,127.38711,-999.00,-2.04,-999.0,no,yes,no,300234065982560,GPS,TUT,MOSAiC,North
2019-10-27T22:30:00Z,1572215400,2019,22,30,300.9375,300.9375,85.56376,127.31484,-999.00,-2.03,-999.0,no,yes,no,300234065982560,GPS,TUT,MOSAiC,North
2019-10-27T23:30:02Z,1572219003,2019,23,30,300.9792,300.9792,85.56771,127.2703,-999.00,-1.99,-999.0,no,yes,no,300234065982560,GPS,TUT,MOSAiC,North
2019-10-28T00:29:57Z,1572222597,2019,0,30,301.0208,301.0208,85.56771,127.2703,-999.00,-2.02,-999.0,no,yes,no,300234065982560,GPS,TUT,MOSAiC,North
2019-10-28T01:30:00Z,1572226200,2019,1,30,301.0625,301.0625,85.57615,127.18538,-999.00,-1.95,-999.0,no,yes,no,300234065982560,GPS,TUT,MOSAiC,North
2019-10-28T02:30:02Z,1572229803,2019,2,30,301.1042,301.1042,85.58069,127.14799,-999.00,-1.89,-999.0,no,yes,no,300234065982560,GPS,TUT,MOSAiC,North
2019-10-28T03:29:57Z,1572233397,2019,3,30,301.1458,301.1458,85.58528,127.11511,-999.00,-1.82,-999.0,no,yes,no,300234065982560,GPS,TUT,MOSAiC,North
2019-10-28T04:30:00Z,1572237000,2019,4,30,301.1875,301.1875,85.58988,127.087,-999.00,-1.76,-999.0,no,yes,no,300234065982560,GPS,TUT,MOSAiC,North
2019-10-28T05:30:02Z,1572240603,2019,5,30,301.2292,301.2292,85.58988,127.087,-999.00,-1.69,-999.0,no,yes,no,300234065982560,GPS,TUT,MOSAiC,North
2019-10-28T06:29:57Z,1572244197,2019,6,30,301.2708,301.2708,85.59884,127.03684,-999.00,-1.64,-999.0,no,yes,no,300234065982560,GPS,TUT,MOSAiC,North
2019-10-28T07:30:00Z,1572247800,2019,7,30,301.3125,301.3125,85.59884,127.03683,-999.00,-1.58,-999.0,no,yes,no,300234065982560,GPS,TUT,MOSAiC,North
2019-10-28T08:30:02Z,1572251403,2019,8,30,301.3542,301.3542,85.60744,126.98216,-999.00,-1.54,-999.0,no,yes,no,300234065982560,GPS,TUT,MOSAiC,North
2019-10-28T09:29:57Z,1572254997,2019,9,30,301.3958,301.3958,85.60744,126.98214,-999.00,-1.5,-999.0,no,yes,no,300234065982560,GPS,TUT,MOSAiC,North
2019-10-28T10:30:00Z,1572258600,2019,10,30,301.4375,301.4375,85.61605,126.91999,-999.00,-1.46,-999.0,no,yes,no,300234065982560,GPS,TUT,MOSAiC,North
2019-10-28T11:30:02Z,1572262203,2019,11,30,301.4792,301.4792,85.61606,126.91999,-999.00,-1.44,-999.0,no,yes,no,300234065982560,GPS,TUT,MOSAiC,North
2019-10-28T12:29:57Z,1572265797,2019,12,30,301.5208,301.5208,85.62451,126.85716,-999.00,-1.43,-999.0,no,yes,no,300234065982560,GPS,TUT,MOSAiC,North
